Torna al catalogo

COSMOS 1375 DEB

AttivoLEO
NORAD 16385·DEBRIS·🇷🇺 Russia

Lanciato Jun 6, 1982 da Plesetsk Cosmodrome

Loading…

Prossimi Passaggi (prossime 24 ore)

TLE

AggiornatoSource: Space-Track

Epoca: Sep 13, 2026, 12:22 UTC

1 16385U 82055Z   26256.51558068  .00000511  00000-0  49967-3 0  9997
2 16385  65.8282 301.3199 0035702 241.4054 187.4466 13.87579693 58589

Traccia COSMOS 1375 DEB in tempo reale con AllMySat

Download on the App Store